Date String (YYYY-MM-DD hh:mm:ss) UTC,Instrument flags,absolute air pressure of the measurement (hPa),sample flow rate (lpm),inlet stack bypass flow (lpm),air temperature of the measurement (°C),ambient temperature measured by the external sensor (°C),aerosol sample conditioner tube jacket temperature (°C),OPC LED temperature (°C),internal box temperature (°C),relative humidity of the measurement (%),span deviation,mass concentration of particles derived from Lorenz-Mie calculation of OPC scattering (μg/m³),mass concentration of particles derived from Lorenz-Mie calculation of OPC scattering (μg/m³),mass concentration of particles derived from Lorenz-Mie calculation of OPC scattering (μg/m³)
DateTimeUTC,F1_M11,P_M11,Q1_M11,Q2_M11,T1_M11,T2_M11,T3_M11,T4_M11,T5_M11,U1_M11,ZSPAN_M11,X0_M11,X2_M11,X1_M11
2024-04-12 15:00:00,SystemResetWarning,0830.6,5.00,000.00,022.8,022.1,000.0,031.2,024.6,016.7,0000.0,0018.15,0006.44,0004.01
2024-04-12 15:01:00,SystemResetWarning,0830.5,5.01,000.00,022.8,022.2,000.0,031.2,024.6,016.7,0000.0,0019.40,0006.50,0004.04
2024-04-12 15:02:00,SystemResetWarning,0830.4,5.00,000.00,022.8,022.2,000.0,031.2,024.6,016.6,0000.0,0020.51,0006.57,0004.09
2024-04-12 15:03:00,SystemResetWarning,0830.5,4.99,000.00,022.8,022.2,000.0,031.2,024.6,016.6,0000.0,0020.54,0006.59,0004.14
2024-04-12 15:04:00,SystemResetWarning,0830.4,4.99,000.00,022.8,022.2,000.0,031.2,024.6,016.7,0000.0,0021.30,0006.76,0004.23
2024-04-12 15:05:00,SystemResetWarning,0830.4,5.00,000.00,022.8,022.2,000.0,031.2,024.7,016.4,0000.0,0020.96,0006.75,0004.27
2024-04-12 15:06:00,SystemResetWarning,0830.8,5.00,000.00,022.8,022.2,000.0,031.2,024.7,016.2,0000.0,0021.33,0006.74,0004.29
2024-04-12 15:07:00,SystemResetWarning,0830.4,5.01,000.00,022.8,022.2,000.0,031.2,024.7,016.3,0000.0,0021.63,0006.73,0004.30
2024-04-12 15:08:00,SystemResetWarning,0830.4,5.00,000.00,022.9,022.3,000.0,031.2,024.7,016.4,0000.0,0022.10,0006.81,0004.32
2024-04-12 15:09:00,SystemResetWarning,0830.4,4.99,000.00,022.9,022.3,000.0,031.2,024.7,016.3,0000.0,0021.96,0006.79,0004.32
2024-04-12 15:10:00,SystemResetWarning,0830.4,4.99,000.00,022.9,022.3,000.0,031.2,024.7,016.4,0000.0,0021.87,0006.77,0004.32
2024-04-12 15:11:00,SystemResetWarning,0830.5,5.00,000.00,022.9,022.3,000.0,031.2,024.7,016.1,0000.0,0022.72,0006.79,0004.33
2024-04-12 15:12:00,SystemResetWarning,0830.4,5.00,000.00,022.9,022.3,000.0,031.3,024.7,016.1,0000.0,0022.89,0006.74,0004.33
2024-04-12 15:13:00,SystemResetWarning,0830.4,5.00,000.00,022.9,022.3,000.0,031.3,024.8,015.9,0000.0,0021.78,0006.65,0004.30
2024-04-12 15:14:00,SystemResetWarning,0830.4,5.01,000.00,022.9,022.3,000.0,031.3,024.7,015.9,0000.0,0021.71,0006.66,0004.28
2024-04-12 15:15:00,SystemResetWarning,0830.4,5.01,000.00,022.9,022.3,000.0,031.3,024.7,016.2,0000.0,0022.31,0006.65,0004.24
2024-04-12 15:16:00,SystemResetWarning,0830.4,5.00,000.00,022.9,022.3,000.0,031.3,024.8,016.2,0000.0,0022.33,0006.68,0004.23
2024-04-12 15:17:00,SystemResetWarning,0830.4,5.00,000.00,022.9,022.3,000.0,031.3,024.8,016.2,0000.0,0021.94,0006.69,0004.21
2024-04-12 15:18:00,SystemResetWarning,0830.4,5.00,000.00,022.9,022.3,000.0,031.3,024.8,016.1,0000.0,0021.47,0006.61,0004.18
2024-04-12 15:19:00,SystemResetWarning,0830.4,5.00,000.00,023.0,022.3,000.0,031.3,024.8,016.0,0000.0,0020.98,0006.44,0004.14
2024-04-12 15:20:00,SystemResetWarning,0830.4,5.00,000.00,023.0,022.3,000.0,031.3,024.8,015.8,0000.0,0021.69,0006.40,0004.08
2024-04-12 15:21:00,SystemResetWarning,0830.3,5.00,000.00,023.0,022.4,000.0,031.3,024.8,015.7,0000.0,0022.18,0006.35,0004.02
2024-04-12 15:22:00,SystemResetWarning,0830.4,5.00,000.00,023.0,022.4,000.0,031.3,024.8,015.8,0000.0,0022.39,0006.31,0003.97
2024-04-12 15:23:00,SystemResetWarning,0830.4,4.99,000.00,023.0,022.4,000.0,031.3,024.8,016.1,0000.0,0021.71,0006.35,0003.92
2024-04-12 15:24:00,SystemResetWarning,0830.3,5.01,000.00,023.0,022.4,000.0,031.3,024.8,015.7,0000.0,0022.94,0006.42,0003.89
2024-04-12 15:25:00,SystemResetWarning,0830.3,5.01,000.00,023.0,022.4,000.0,031.4,024.8,015.5,0000.0,0024.96,0006.44,0003.85
2024-04-12 15:26:00,SystemResetWarning,0830.3,5.00,000.00,023.0,022.5,000.0,031.4,024.8,015.6,0000.0,0024.35,0006.32,0003.80
2024-04-12 15:27:00,SystemResetWarning,0830.3,5.00,000.00,023.0,022.5,000.0,031.4,024.9,015.3,0000.0,0024.66,0006.25,0003.73
2024-04-12 15:28:00,SystemResetWarning,0830.3,5.00,000.00,023.0,022.5,000.0,031.4,024.9,015.3,0000.0,0026.19,0006.21,0003.66
2024-04-12 15:29:00,SystemResetWarning,0830.3,5.00,000.00,023.1,022.5,000.0,031.4,024.9,015.2,0000.0,0026.64,0006.25,0003.60
2024-04-12 15:30:00,SystemResetWarning,0830.2,5.00,000.00,023.1,022.5,000.0,031.4,024.9,015.1,0000.0,0028.34,0006.27,0003.55
2024-04-12 15:31:00,SystemResetWarning,0830.2,4.99,000.00,023.1,022.5,000.0,031.4,024.9,015.5,0000.0,0028.27,0006.24,0003.51
2024-04-12 15:32:00,SystemResetWarning,0830.2,5.00,000.00,023.1,022.6,000.0,031.4,024.9,015.8,0000.0,0027.83,0006.25,0003.49
2024-04-12 15:33:00,SystemResetWarning,0830.2,5.00,000.00,023.1,022.6,000.0,031.4,024.9,015.7,0000.0,0027.15,0006.22,0003.48
2024-04-12 15:34:00,SystemResetWarning,0830.2,5.00,000.00,023.1,022.6,000.0,031.4,025.0,015.5,0000.0,0026.58,0006.12,0003.46
2024-04-12 15:35:00,SystemResetWarning,0830.3,5.00,000.00,023.2,022.6,000.0,031.5,025.0,015.4,0000.0,0027.32,0006.00,0003.42
2024-04-12 15:36:00,SystemResetWarning,0830.3,5.01,000.00,023.2,022.7,000.0,031.5,025.0,015.3,0000.0,0026.32,0005.86,0003.38
2024-04-12 15:37:00,SystemResetWarning,0830.3,5.00,000.00,023.2,022.7,000.0,031.5,025.0,015.5,0000.0,0025.48,0005.77,0003.36
2024-04-12 15:38:00,SystemResetWarning,0830.3,5.00,000.00,023.2,022.7,000.0,031.5,025.0,015.7,0000.0,0024.72,0005.72,0003.34
2024-04-12 15:39:00,SystemResetWarning,0830.3,4.99,000.00,023.2,022.7,000.0,031.5,025.0,015.8,0000.0,0022.88,0005.69,0003.34
2024-04-12 15:40:00,SystemResetWarning,0830.3,5.00,000.00,023.2,022.7,000.0,031.5,025.0,016.0,0000.0,0022.07,0005.63,0003.35
2024-04-12 15:41:00,SystemResetWarning,0830.3,5.00,000.00,023.2,022.8,000.0,031.5,025.1,016.1,0000.0,0020.75,0005.65,0003.35
2024-04-12 15:42:00,SystemResetWarning,0830.3,5.00,000.00,023.3,022.8,000.0,031.5,025.1,016.0,0000.0,0019.46,0005.59,0003.35
2024-04-12 15:43:00,SystemResetWarning,0830.3,5.00,000.00,023.3,022.8,000.0,031.6,025.1,016.0,0000.0,0018.98,0005.51,0003.34
2024-04-12 15:44:00,SystemResetWarning,0830.3,5.00,000.00,023.3,022.8,000.0,031.6,025.1,015.7,0000.0,0018.90,0005.50,0003.32
2024-04-12 15:45:00,SystemResetWarning,0830.3,5.00,000.00,023.3,022.9,000.0,031.6,025.1,015.5,0000.0,0018.97,0005.53,0003.31
2024-04-12 15:46:00,SystemResetWarning,0830.3,5.00,000.00,023.3,022.9,000.0,031.6,025.1,015.5,0000.0,0017.29,0005.53,0003.31
2024-04-12 15:47:00,SystemResetWarning,0830.3,5.01,000.00,023.4,022.9,000.0,031.6,025.2,015.3,0000.0,0015.41,0005.55,0003.32
2024-04-12 15:48:00,SystemResetWarning,0830.3,4.99,000.00,023.4,022.9,000.0,031.6,025.2,015.2,0000.0,0015.13,0005.59,0003.32
2024-04-12 15:49:00,SystemResetWarning,0830.3,5.00,000.00,023.4,022.9,000.0,031.7,025.2,015.7,0000.0,0015.60,0005.63,0003.32
2024-04-12 15:50:00,SystemResetWarning,0830.3,5.00,000.00,023.4,023.0,000.0,031.7,025.2,015.6,0000.0,0015.46,0005.69,0003.33
2024-04-12 15:51:00,SystemResetWarning,0830.4,5.00,000.00,023.4,023.0,000.0,031.7,025.2,015.4,0000.0,0016.17,0005.71,0003.32
2024-04-12 15:52:00,SystemResetWarning,0830.4,4.99,000.00,023.4,023.0,000.0,031.7,025.2,015.7,0000.0,0017.02,0005.66,0003.32
2024-04-12 15:53:00,SystemResetWarning,0830.4,4.99,000.00,023.5,023.0,000.0,031.7,025.3,015.4,0000.0,0018.29,0005.68,0003.33
2024-04-12 15:54:00,SystemResetWarning,0830.4,5.00,000.00,023.5,023.0,000.0,031.7,025.3,015.5,0000.0,0018.05,0005.65,0003.32
2024-04-12 15:55:00,SystemResetWarning,0830.4,5.00,000.00,023.5,023.0,000.0,031.8,025.3,015.5,0000.0,0017.56,0005.57,0003.32
2024-04-12 15:56:00,SystemResetWarning,0830.4,5.01,000.00,023.5,023.1,000.0,031.8,025.3,015.4,0000.0,0016.97,0005.50,0003.32
2024-04-12 15:57:00,SystemResetWarning,0830.4,5.00,000.00,023.5,023.1,000.0,031.8,025.3,016.2,0000.0,0016.92,0005.44,0003.31
2024-04-12 15:58:00,SystemResetWarning,0830.4,5.01,000.00,023.6,023.1,000.0,031.8,025.4,015.7,0000.0,0017.03,0005.44,0003.32
2024-04-12 15:59:00,SystemResetWarning,0830.4,5.00,000.00,023.6,023.1,000.0,031.8,025.4,016.2,0000.0,0017.10,0005.41,0003.34
